Weather History for Joplin, MO

Change the Weather History Date:

Tuesday, December 4, 2012

  Actual Average Record
Temperature  
Mean Temperature 48 °F 40 °F  
Max Temperature 60 °F 50 °F 74 °F (2001)
Min Temperature 36 °F 30 °F 11 °F (2006)
Degree Days  
Heating Degree Days 17 25  
Month to date heating degree days 21 97  
Since 1 July heating degree days 807 854  
Cooling Degree Days 0 0  
Month to date cooling degree days 0 0  
Year to date cooling degree days 2106 1698  
Moisture  
Dew Point 37 °F    
Average Humidity 63    
Maximum Humidity 88    
Minimum Humidity 36    
Precipitation  
Precipitation 0.02 in 0.10 in 3.59 in (1999)
Month to date precipitation 0.69 0.43  
Year to date precipitation 37.65 44.16  
Sea Level Pressure  
Sea Level Pressure 30.20 in    
Wind  
Wind Speed 6 mph (NNE)    
Max Wind Speed 14 mph    
Max Gust Speed 26 mph    
Visibility 10 miles    
Events Thunderstorm    
T = Trace of Precipitation, MM = Missing Value Source: NWS Daily Summary

Daily Weather History Graph

Daily Weather History Graph

Search for Another Location

Airport:

Trip Planner

Search our weather history database for the weather conditions in past years. The results will help you decide how hot, cold, wet, or windy it might be!

Date:

Astronomy

Dec. 04, 2012 Rise Set
Actual Time 7:16 AM CST 5:00 PM CST
Civil Twilight 6:47 AM CST 5:29 PM CST
Nautical Twilight 6:15 AM CST 6:01 PM CST
Astronomical Twilight 5:43 AM CST 6:33 PM CST
Moon 10:43 PM CST (12/4) 11:15 AM CST (12/4)
Length of Visible Light 10h 41m
Length of Day
9h 44m
Waning Gibbous, 69% of the Moon is Illuminated
Dec 4
Waning Gibbous
Dec 6
Last Quarter
Dec 13
New
Dec 19
First Quarter
Dec 28
Full

Hourly Weather History & Observations

Time (CST) Temp. Windchill Dew Point Humidity Pressure Visibility Wind Dir Wind Speed Gust Speed Precip Events Conditions
12:20 AM 53.6 °F - 50.0 °F 88% 30.01 in 10.0 mi NNE 8.1 mph - 0.00 in Thunderstorm Overcast
12:29 AM 53.6 °F - 50.0 °F 88% 30.02 in 10.0 mi North 8.1 mph - 0.00 in   Overcast
12:53 AM 54.0 °F - 50.0 °F 86% 30.01 in 10.0 mi NNE 5.8 mph - 0.02 in   Overcast
1:53 AM 54.0 °F - 48.0 °F 80% 30.01 in 10.0 mi North 8.1 mph - N/A   Overcast
2:53 AM 53.1 °F - 46.0 °F 77% 30.05 in 10.0 mi North 8.1 mph - N/A   Clear
3:53 AM 52.0 °F - 43.0 °F 71% 30.07 in 10.0 mi North 11.5 mph - N/A   Clear
4:53 AM 51.1 °F - 39.0 °F 63% 30.08 in 10.0 mi North 10.4 mph - N/A   Clear
5:53 AM 50.0 °F - 37.4 °F 62% 30.12 in 10.0 mi NNE 8.1 mph - N/A   Clear
6:53 AM 48.0 °F - 37.9 °F 68% 30.15 in 10.0 mi North 9.2 mph - N/A   Clear
7:53 AM 46.0 °F 42.5 °F 37.0 °F 71% 30.18 in 10.0 mi North 6.9 mph - N/A   Clear
8:53 AM 50.0 °F - 36.0 °F 59% 30.21 in 10.0 mi North 9.2 mph - N/A   Clear
9:53 AM 54.0 °F - 35.1 °F 49% 30.24 in 10.0 mi North 10.4 mph 17.3 mph N/A   Clear
10:53 AM 54.0 °F - 37.0 °F 53% 30.25 in 10.0 mi North 9.2 mph - N/A   Clear
11:53 AM 55.0 °F - 37.0 °F 51% 30.24 in 10.0 mi North 6.9 mph - N/A   Clear
12:53 PM 57.0 °F - 36.0 °F 45% 30.24 in 10.0 mi NE 6.9 mph - N/A   Clear
1:53 PM 59.0 °F - 35.1 °F 41% 30.23 in 10.0 mi North 6.9 mph - N/A   Clear
2:53 PM 59.0 °F - 33.1 °F 38% 30.25 in 10.0 mi North 10.4 mph 16.1 mph N/A   Clear
3:53 PM 57.9 °F - 30.9 °F 36% 30.26 in 10.0 mi North 8.1 mph - N/A   Clear
4:53 PM 55.9 °F - 30.0 °F 37% 30.27 in 10.0 mi NNE 5.8 mph - N/A   Clear
5:53 PM 51.1 °F - 30.0 °F 44% 30.28 in 10.0 mi NNE 3.5 mph - N/A   Clear
6:53 PM 48.0 °F - 30.9 °F 52% 30.29 in 10.0 mi Calm Calm - N/A   Clear
7:53 PM 45.0 °F - 32.0 °F 60% 30.29 in 10.0 mi Calm Calm - N/A   Clear
8:53 PM 41.0 °F - 33.1 °F 73% 30.32 in 10.0 mi Calm Calm - N/A   Clear
9:53 PM 37.9 °F - 33.1 °F 83% 30.33 in 10.0 mi Calm Calm - N/A   Clear
10:53 PM 39.0 °F 35.7 °F 33.1 °F 79% 30.34 in 10.0 mi ESE 4.6 mph - N/A   Clear
11:53 PM 37.9 °F - 32.0 °F 79% 30.34 in 10.0 mi Calm Calm - N/A   Clear